1498399200.83,26482,23.94,74154.0,23.65,-8.89,-1.33,0,*4D
1498399202.02,26483,23.94,74154.0,23.57,-8.85,-1.21,0,*42
1498399203.27,26484,23.94,74154.3,23.57,-9.11,-1.39,0,*40
1498399204.49,26485,23.94,74154.3,23.55,-9.79,-2.31,0,*46
1498399205.72,26486,23.94,74152.0,23.53,-9.05,-1.35,0,*4F
1498399206.94,26487,23.94,74154.0,23.49,-9.01,-1.35,0,*41
1498399208.16,26488,23.94,74154.0,23.45,-9.27,-1.63,0,*45
1498399209.4,26489,23.94,74152.3,23.45,-10.09,-2.47,0,*75
1498399210.63,26490,23.94,74152.8,23.41,-10.93,-3.03,0,*7B
1498399211.91,26491,23.94,74152.5,23.37,-10.75,-2.71,0,*77
1498399213.11,26492,23.94,74152.8,23.31,-10.27,-2.27,0,*76
1498399214.29,26493,23.94,74154.3,23.27,-9.89,-2.15,0,*4D
1498399215.52,26494,23.94,74152.5,23.27,-9.11,-1.21,0,*4F
1498399216.76,26495,23.94,74152.0,23.25,-7.95,-0.19,0,*74
1498399217.97,26496,24.0,74154.3,23.23,-8.11,-0.29,0,*71
1498399219.18,26497,23.94,74150.8,23.23,-7.65,0.01,0,*6B
1498399220.37,26498,23.94,74148.8,23.23,-7.83,-0.03,0,*43
1498399221.56,26499,23.94,74152.0,23.23,-8.25,-0.37,0,*76
1498399222.78,26500,23.94,74154.3,23.19,-7.99,-0.07,0,*45
1498399224.02,26501,23.94,74152.5,23.19,-7.73,0.21,0,*59
1498399225.27,26502,23.94,74152.3,23.17,-7.39,0.41,0,*5C
1498399226.5,26503,23.94,74148.8,23.15,-7.53,0.33,0,*56
1498399227.75,26504,23.94,74150.8,23.15,-7.57,0.25,0,*52
1498399229.0,26505,23.94,74148.0,23.15,-7.69,0.25,0,*5E
1498399230.24,26506,23.94,74152.5,23.11,-7.57,0.43,0,*54
1498399231.48,26507,23.94,74150.8,23.11,-7.01,0.95,0,*5D
1498399232.7,26508,23.94,74150.8,23.09,-6.77,1.21,0,*65
1498399233.91,26509,23.94,74150.5,23.09,-7.23,0.71,0,*50
1498399235.14,26510,23.94,74148.0,23.09,-6.63,1.29,0,*61
1498399236.37,26511,23.94,74150.0,23.09,-6.27,1.63,0,*6E
1498399237.59,26512,24.0,74152.0,23.05,-6.27,1.43,0,*63
1498399238.85,26513,23.94,74150.5,23.07,-6.23,1.63,0,*66
1498399240.03,26514,23.94,74150.5,23.05,-6.05,1.79,0,*6C
1498399241.25,26515,23.94,74148.8,23.05,-6.35,1.55,0,*60
1498399242.48,26516,23.94,74150.0,23.05,-6.27,1.55,0,*60
1498399243.72,26517,23.94,74152.0,23.05,-5.85,1.93,0,*60
1498399244.93,26518,23.94,74148.3,23.05,-5.61,2.27,0,*69
1498399246.11,26519,23.94,74150.0,23.01,-6.09,1.79,0,*69
1498399247.37,26520,24.0,74154.0,23.03,-5.93,1.93,0,*65
1498399248.63,26521,23.94,74150.8,23.03,-5.69,2.09,0,*61
1498399249.87,26522,23.94,74150.3,23.03,-5.47,2.51,0,*63
1498399251.07,26523,23.94,74148.8,23.01,-5.43,2.55,0,*60
1498399252.29,26524,24.0,74154.3,23.01,-5.47,2.51,0,*67
1498399253.47,26525,23.94,74152.0,23.01,-5.47,2.35,0,*64
1498399254.69,26526,23.94,74148.0,23.01,-5.47,2.51,0,*65
1498399255.87,26527,23.94,74150.0,23.01,-5.47,2.27,0,*65
1498399257.1,26528,24.0,74150.8,22.97,-6.27,1.47,0,*64
1498399258.31,26529,23.94,74148.3,22.97,-6.85,1.09,0,*67
1498399259.55,26530,23.94,74148.0,22.97,-5.69,2.17,0,*62
1498399260.76,26531,23.94,74150.0,22.97,-6.05,1.93,0,*65
1498399261.95,26532,24.0,74152.0,22.93,-5.55,2.27,0,*68
1498399263.14,26533,23.94,74148.3,22.93,-5.55,2.27,0,*69
1498399264.36,26534,23.94,74150.8,22.93,-4.93,2.85,0,*6D
1498399265.6,26535,23.94,74148.5,22.93,-4.73,3.07,0,*69
1498399266.84,26536,24.0,74152.5,22.93,-5.07,2.73,0,*6A
1498399268.05,26537,23.94,74148.3,22.93,-4.65,3.11,0,*6B
1498399269.26,26538,23.94,74146.5,22.89,-5.27,2.35,0,*6F
1498399270.47,26539,23.94,74148.3,22.87,-5.39,2.35,0,*6F
1498399271.69,26540,23.94,74148.0,22.87,-5.51,2.27,0,*6C
1498399272.92,26541,23.94,74150.0,22.87,-4.73,2.91,0,*61
1498399274.15,26542,23.94,74150.8,22.87,-4.41,3.19,0,*62
1498399275.37,26543,23.94,74148.0,22.85,-4.05,3.49,0,*64
1498399276.59,26544,24.0,74148.5,22.85,-5.51,2.09,0,*66
1498399277.83,26545,23.94,74150.8,22.83,-5.31,2.39,0,*64
1498399279.03,26546,23.94,74148.3,22.83,-4.45,3.23,0,*6F
1498399280.28,26547,23.94,74150.0,22.81,-4.89,2.69,0,*63
1498399281.49,26548,23.94,74150.8,22.79,-4.53,3.03,0,*61
1498399282.74,26549,23.94,74148.0,22.81,-3.71,3.79,0,*6D
1498399283.98,26550,24.0,74150.3,22.81,-3.55,3.89,0,*6C
1498399285.19,26551,23.94,74148.3,22.81,-3.35,4.11,0,*6D
1498399286.38,26552,23.94,74148.3,22.83,-3.39,4.15,0,*64
1498399287.57,26553,24.0,74150.3,22.83,-2.99,4.41,0,*6F
1498399288.81,26554,24.0,74150.0,22.83,-2.63,4.63,0,*6D
1498399290.03,26555,23.94,74148.3,22.83,-2.63,4.57,0,*6B
1498399291.27,26556,23.94,74146.0,22.85,-3.59,3.71,0,*65
1498399292.46,26557,23.94,74150.0,22.83,-4.05,3.25,0,*6D
1498399293.65,26558,24.0,74152.0,22.83,-3.15,4.07,0,*63
1498399294.87,26559,24.0,74152.5,22.83,-4.21,2.85,0,*6E
1498399296.1,26560,23.94,74148.8,22.83,-5.23,2.01,0,*6B
1498399297.29,26561,23.94,74148.8,22.79,-4.09,2.99,0,*67
1498399298.52,26562,23.94,74144.8,22.81,-4.05,3.03,0,*6D
1498399299.75,26563,23.94,74148.0,22.79,-5.07,1.97,0,*67
1498399301.01,26564,24.0,74150.8,22.77,-5.19,1.97,0,*61
1498399302.24,26565,23.94,74148.3,22.75,-3.79,3.15,0,*6A
1498399303.45,26566,23.94,74150.5,22.77,-2.23,4.57,0,*64
1498399304.72,26567,23.94,74148.8,22.77,-2.07,4.67,0,*60
1498399305.94,26568,24.0,74150.8,22.79,-1.71,4.93,0,*68
1498399307.14,26569,23.94,74144.0,22.79,-1.95,4.57,0,*6B
1498399308.38,26570,24.0,74146.8,22.81,-1.91,4.53,0,*64
1498399309.61,26571,23.94,74146.0,22.81,-1.09,5.33,0,*63
1498399310.8,26572,24.0,74148.5,22.85,-0.37,6.03,0,*58
1498399312.04,26573,24.0,74148.8,22.87,0.37,6.53,0,*73
1498399313.27,26574,24.0,74148.3,22.93,0.55,6.61,0,*74
1498399314.46,26575,23.94,74146.5,22.97,0.83,7.01,0,*7D
1498399315.69,26576,23.94,74144.8,22.99,1.47,7.37,0,*4C
1498399316.9,26577,24.0,74148.8,23.01,1.75,7.61,0,*4F
1498399318.15,26578,24.0,74150.3,23.07,2.13,7.83,0,*49
1498399319.39,26579,23.94,74144.3,23.11,1.29,6.93,0,*45
1498399320.61,26580,23.94,74146.0,23.17,1.71,7.01,0,*42
1498399321.82,26581,24.0,74146.0,23.23,1.43,6.93,0,*4F
1498399323.03,26582,23.94,74144.8,23.25,2.35,7.79,0,*4D
1498399324.26,26583,24.0,74150.5,23.27,2.47,7.83,0,*4E
1498399325.44,26584,24.0,74150.3,23.31,2.99,8.19,0,*41
1498399326.68,26585,24.0,74148.8,23.37,2.59,7.79,0,*43
1498399327.89,26586,24.0,74150.0,23.43,3.03,8.15,0,*48
1498399329.12,26587,24.0,74150.0,23.47,2.25,7.27,0,*46
1498399330.33,26588,24.0,74148.3,23.49,2.43,7.29,0,*49
1498399331.53,26589,24.0,74150.8,23.53,1.43,6.21,0,*49
1498399332.75,26590,24.0,74148.3,23.57,0.63,5.51,0,*72
1498399333.95,26591,23.94,74144.8,23.57,2.25,7.01,0,*44
1498399335.18,26592,24.0,74146.5,23.61,1.67,6.47,0,*44
1498399336.36,26593,23.94,74146.5,23.61,2.61,7.29,0,*49
1498399337.6,26594,23.94,74146.3,23.65,3.07,7.77,0,*40
1498399338.78,26595,24.0,74148.5,23.69,3.29,7.97,0,*4F
1498399339.99,26596,24.0,74146.8,23.73,3.03,7.55,0,*41
1498399341.22,26597,24.0,74150.8,23.77,2.01,6.35,0,*40
1498399342.44,26598,23.94,74144.3,23.79,2.55,7.05,0,*42
1498399343.68,26599,24.0,74148.3,23.83,3.41,7.77,0,*47
1498399344.92,26600,24.0,74148.5,23.91,3.71,8.13,0,*49
1498399346.15,26601,24.0,74146.0,23.91,3.71,8.13,0,*48
1498399347.35,26602,23.94,74146.8,23.95,3.55,7.83,0,*4F
1498399348.56,26603,24.0,74146.5,23.99,3.59,7.83,0,*4E
1498399349.79,26604,23.94,74144.3,24.05,1.89,5.99,0,*4D
1498399351.01,26605,23.0,74144.5,24.05,0.33,4.57,0,*7F
1498399352.24,26606,24.0,74148.0,24.01,-0.23,4.07,0,*51
1498399353.44,26607,24.0,74148.5,24.05,0.09,4.27,0,*43
1498399354.7,26608,23.94,74144.3,24.05,1.25,5.51,0,*43
1498399355.91,26609,24.0,74148.3,24.07,1.55,5.67,0,*42
1498399357.13,26610,23.94,74144.3,24.09,0.97,5.07,0,*7D
1498399358.38,26611,24.0,74150.8,24.09,0.95,4.97,0,*76
1498399359.58,26612,23.94,74146.3,24.09,0.09,4.07,0,*49
1498399360.78,26613,24.0,74144.8,24.11,0.41,4.57,0,*78
1498399361.98,26614,24.0,74144.8,24.11,0.25,4.33,0,*7F
1498399363.16,26615,24.0,74146.0,24.11,-0.33,3.89,0,*52
1498399364.37,26616,23.94,74144.8,24.11,-0.77,3.37,0,*54
1498399365.59,26617,23.94,74140.8,24.11,0.25,4.31,0,*7E
1498399366.79,26618,23.94,74140.5,24.11,-0.33,3.71,0,*58
1498399367.99,26619,24.0,74146.0,24.11,0.29,4.53,0,*78
1498399369.2,26620,24.0,74146.8,24.13,1.41,5.51,0,*4C
1498399370.41,26621,24.0,74148.3,24.13,1.25,5.41,0,*4E
1498399371.63,26622,24.0,74146.0,24.15,1.05,5.07,0,*4B
1498399372.81,26623,24.0,74146.0,24.17,1.41,5.29,0,*44
1498399374.04,26624,24.0,74146.3,24.17,-0.27,3.79,0,*5C
1498399375.25,26625,23.94,74142.5,24.17,-1.35,2.65,0,*63
1498399376.46,26626,24.0,74144.3,24.17,-0.69,3.23,0,*5B
1498399377.69,26627,24.0,74144.0,24.15,-0.81,3.19,0,*57
1498399378.87,26628,24.0,74146.8,24.17,-1.51,2.35,0,*69
1498399380.1,26629,24.0,74140.8,24.15,-0.69,3.45,0,*56
1498399381.34,26630,23.94,74140.0,24.15,-0.65,3.41,0,*56
1498399382.6,26631,24.0,74144.5,24.15,-1.09,3.03,0,*6A
1498399383.81,26632,23.94,74144.0,24.13,-0.73,3.19,0,*58
1498399385.06,26633,24.0,74142.8,24.13,-1.05,3.07,0,*66
1498399386.24,26634,24.0,74144.3,24.13,-0.19,3.85,0,*57
1498399387.44,26635,23.94,74144.0,24.13,0.29,4.27,0,*77
1498399388.67,26636,24.0,74146.0,24.13,0.63,4.71,0,*79
1498399389.87,26637,24.0,74146.3,24.17,0.83,4.85,0,*79
1498399391.06,26638,23.94,74142.0,24.17,1.41,5.33,0,*45
1498399392.32,26639,24.0,74148.0,24.23,2.43,6.43,0,*46
1498399393.55,26640,24.0,74144.8,24.23,1.97,6.07,0,*42
1498399394.75,26641,24.0,74146.5,24.25,0.91,4.89,0,*76
1498399395.94,26642,24.0,74144.8,24.31,0.43,4.57,0,*7C
1498399397.15,26643,24.0,74146.8,24.31,1.01,5.15,0,*4D
1498399398.4,26644,24.0,74146.5,24.31,0.87,4.67,0,*71
1498399399.63,26645,24.0,74144.3,24.31,0.55,4.57,0,*7C
1498399400.85,26646,24.0,74144.0,24.31,0.79,4.81,0,*7A
1498399402.04,26647,24.0,74144.8,24.33,0.13,4.11,0,*7C
1498399403.22,26648,24.0,74146.0,24.33,-0.19,3.89,0,*52
1498399404.44,26649,24.0,74144.8,24.33,-1.95,1.97,0,*6B
1498399405.64,26650,24.0,74146.0,24.33,-2.67,1.41,0,*66
1498399406.86,26651,24.0,74146.0,24.31,-0.29,3.67,0,*5B
1498399408.09,26652,24.0,74146.3,24.29,-0.89,3.11,0,*5A
1498399409.32,26653,24.0,74140.3,24.31,-1.47,2.31,0,*62
1498399410.53,26654,24.0,74142.0,24.29,-0.65,3.15,0,*5A
1498399411.77,26655,24.0,74140.8,24.25,-1.99,2.01,0,*61
1498399412.97,26656,24.0,74146.5,24.23,-0.73,2.95,0,*5C
1498399414.17,26657,24.0,74144.0,24.25,0.47,4.27,0,*7E
1498399415.41,26658,24.0,74146.0,24.31,0.41,4.31,0,*75
1498399416.64,26659,24.0,74144.0,24.31,-0.81,2.85,0,*5C
1498399417.87,26660,24.0,74146.5,24.31,0.55,4.33,0,*79
1498399419.1,26661,24.0,74146.3,24.31,1.51,5.07,0,*4B
1498399420.37,26662,24.0,74144.0,24.35,1.33,4.97,0,*40
1498399421.61,26663,24.0,74144.0,24.33,1.29,4.71,0,*44
1498399422.84,26664,24.0,74146.5,24.39,-0.11,3.41,0,*5A
1498399424.05,26665,24.0,74146.3,24.37,-0.41,3.03,0,*56
1498399425.25,26666,24.0,74146.0,24.37,0.59,3.93,0,*78
1498399426.43,26667,24.0,74144.0,24.37,-0.65,2.61,0,*57
1498399427.66,26668,24.0,74144.3,24.35,-1.25,1.93,0,*61
1498399428.85,26669,24.0,74142.3,24.33,-3.35,-0.11,0,*73
1498399430.09,26670,24.0,74146.5,24.31,-1.33,2.01,0,*63
1498399431.31,26671,24.0,74146.8,24.31,-0.41,2.85,0,*5A
1498399432.57,26672,24.0,74142.8,24.31,-1.09,2.09,0,*60
1498399433.79,26673,24.0,74142.5,24.31,-1.55,1.71,0,*64
1498399434.98,26674,24.0,74140.8,24.29,-0.49,2.65,0,*50
1498399436.18,26675,24.0,74140.8,24.29,-0.85,2.27,0,*57
1498399437.43,26676,24.0,74140.3,24.31,-0.23,2.85,0,*59
1498399438.65,26677,24.0,74142.5,24.31,0.05,3.07,0,*4A
1498399439.87,26678,24.0,74140.0,24.31,-0.19,2.69,0,*5C
1498399441.12,26679,24.0,74142.8,24.31,0.29,3.41,0,*78
1498399442.37,26680,24.0,74140.5,24.31,0.51,3.41,0,*71
1498399443.58,26681,24.0,74142.3,24.33,-0.41,2.43,0,*5D
1498399444.78,26682,24.0,74142.5,24.33,1.13,3.85,0,*4E
1498399446.02,26683,24.0,74138.3,24.35,1.17,3.89,0,*41
1498399447.2,26684,23.94,74138.5,24.37,1.05,3.63,0,*43
1498399448.42,26685,24.0,74138.8,24.37,0.47,3.03,0,*73
1498399449.62,26686,24.0,74138.5,24.37,0.47,2.99,0,*72
1498399450.82,26687,24.0,74142.5,24.37,0.79,3.25,0,*78
1498399452.01,26688,24.0,74140.0,24.37,0.47,2.99,0,*7C
1498399453.24,26689,24.0,74140.8,24.39,0.55,2.91,0,*78
1498399454.49,26690,24.0,74140.0,24.39,0.87,3.15,0,*72
1498399455.71,26691,24.0,74142.5,24.41,0.75,3.15,0,*71
1498399456.92,26692,24.0,74140.3,24.41,1.37,3.63,0,*44
1498399458.18,26693,24.0,74142.0,24.43,1.33,3.41,0,*43
1498399459.45,26694,24.0,74144.3,24.43,1.17,3.41,0,*42
1498399460.69,26695,24.0,74146.8,24.43,1.89,4.05,0,*43
1498399461.94,26696,24.0,74140.8,24.43,0.55,2.59,0,*7F
1498399463.15,26697,24.0,74140.3,24.47,0.87,2.99,0,*79
1498399464.35,26698,24.0,74140.5,24.47,0.63,2.65,0,*7F
1498399465.56,26699,24.0,74144.3,24.47,-1.99,0.01,0,*67
1498399466.8,26700,24.0,74146.5,24.45,-2.99,-1.09,0,*43
1498399468.01,26701,24.0,74144.3,24.41,-2.75,-0.81,0,*75
1498399469.21,26702,24.0,74146.8,24.39,-2.19,-0.29,0,*71
1498399470.45,26703,24.0,74140.3,24.37,-2.03,-0.27,0,*7B
1498399471.67,26704,24.0,74140.3,24.33,-2.55,-0.85,0,*73
1498399472.9,26705,24.0,74140.8,24.31,-1.29,0.63,0,*5D
1498399474.13,26706,24.0,74140.0,24.31,-0.49,1.29,0,*56
1498399475.37,26707,24.0,74142.0,24.31,0.51,2.55,0,*7B
1498399476.57,26708,24.0,74146.3,24.33,1.59,3.25,0,*49
1498399477.83,26709,24.0,74140.3,24.35,1.85,3.49,0,*45
1498399479.05,26710,24.0,74142.3,24.35,1.41,3.11,0,*48
1498399480.27,26711,24.0,74142.5,24.39,0.97,2.55,0,*7E
1498399481.52,26712,24.0,74140.3,24.39,0.51,2.01,0,*76
1498399482.74,26713,24.0,74140.3,24.37,0.95,2.43,0,*77
1498399483.96,26714,24.0,74144.0,24.41,2.01,3.53,0,*4E
1498399485.22,26715,24.0,74144.3,24.43,2.59,4.05,0,*44
1498399486.46,26716,24.0,74140.3,24.45,3.03,4.53,0,*4C
1498399487.66,26717,24.0,74142.5,24.51,0.97,2.05,0,*73
1498399488.87,26718,24.0,74140.5,24.47,-0.89,0.43,0,*69
1498399490.05,26719,24.0,74140.8,24.47,0.01,1.29,0,*48
1498399491.3,26720,24.0,74144.8,24.45,0.25,1.43,0,*7A
1498399492.5,26721,24.0,74140.3,24.47,0.97,2.21,0,*77
1498399493.76,26722,24.0,74142.3,24.45,1.43,2.73,0,*49
1498399494.97,26723,24.0,74142.0,24.51,1.75,3.03,0,*4E
1498399496.2,26724,24.0,74142.0,24.51,1.51,2.55,0,*4D
1498399497.39,26725,24.0,74142.0,24.51,0.75,1.83,0,*73
1498399498.61,26726,24.0,74142.5,24.51,0.59,1.67,0,*74
1498399499.83,26727,24.0,74142.0,24.51,0.51,1.63,0,*79
1498399501.1,26728,24.0,74140.5,24.53,1.37,2.47,0,*40
1498399502.37,26729,24.0,74142.0,24.53,1.37,2.39,0,*48
1498399503.55,26730,24.0,74140.3,24.55,1.83,2.91,0,*4B
1498399504.78,26731,24.0,74138.3,24.57,1.89,2.91,0,*42
1498399505.98,26732,24.0,74138.5,24.59,1.51,2.35,0,*44
1498399507.2,26733,24.0,74138.5,24.59,1.71,2.47,0,*42
1498399508.41,26734,24.0,74138.3,24.61,1.41,2.35,0,*48
1498399509.62,26735,24.0,74140.3,24.61,1.75,2.61,0,*4F
1498399510.86,26736,24.0,74140.3,24.65,1.93,2.65,0,*44
1498399512.08,26737,24.0,74140.8,24.65,2.25,2.95,0,*44
1498399513.28,26738,24.0,74142.8,24.67,1.59,2.35,0,*4B
1498399514.51,26739,24.0,74140.3,24.69,1.75,2.39,0,*46
1498399515.71,26740,24.0,74136.8,24.69,1.79,2.31,0,*4C
1498399516.96,26741,24.0,74140.3,24.69,1.47,2.13,0,*40
1498399518.17,26742,24.0,74136.5,24.75,1.21,1.83,0,*44
1498399519.35,26743,24.0,74138.3,24.75,0.59,0.97,0,*4F
1498399520.57,26744,24.0,74140.3,24.75,0.55,0.79,0,*44
1498399521.78,26745,24.0,74140.3,24.77,-0.11,0.29,0,*6F
1498399522.98,26746,24.0,74140.0,24.73,-0.37,-0.07,0,*7D
1498399524.19,26747,24.0,74136.8,24.75,0.21,0.67,0,*4B
1498399525.37,26748,24.0,74138.0,24.75,0.05,0.37,0,*77
1498399526.6,26749,24.0,74136.3,24.77,0.83,1.09,0,*76
1498399527.86,26750,24.0,74136.5,24.79,1.13,1.59,0,*4D
1498399529.11,26751,24.0,74138.8,24.79,1.59,1.89,0,*4F
1498399530.32,26752,24.0,74138.3,24.81,1.79,2.13,0,*49
1498399531.55,26753,24.0,74138.5,24.83,1.79,2.01,0,*49
1498399532.8,26754,24.0,74134.3,24.87,1.59,1.85,0,*47
1498399534.04,26755,24.0,74138.0,24.87,0.17,0.13,0,*43
1498399535.27,26756,24.0,74140.8,24.85,-0.85,-0.97,0,*45
1498399536.45,26757,24.0,74138.8,24.85,-0.33,-0.37,0,*43
1498399537.68,26758,24.0,74138.5,24.85,-0.97,-1.13,0,*75
1498399538.92,26759,24.0,74138.3,24.85,-0.97,-1.01,0,*77
1498399540.11,26760,24.0,74136.5,24.85,0.25,0.01,0,*75
1498399541.36,26761,24.0,74138.5,24.87,0.79,0.55,0,*4E
1498399542.62,26762,24.0,74136.0,24.87,1.13,0.91,0,*78
1498399543.83,26763,24.0,74138.0,24.89,1.25,1.05,0,*4E
1498399545.05,26764,24.0,74142.3,24.91,1.05,0.79,0,*78
1498399546.28,26765,24.0,74138.8,24.97,1.09,0.79,0,*73
1498399547.46,26766,24.0,74138.8,24.97,0.43,0.13,0,*43
1498399548.65,26767,24.0,74136.8,24.97,0.41,0.01,0,*73
1498399549.87,26768,24.0,74140.0,24.99,0.55,0.05,0,*73
1498399551.09,26769,24.0,74138.3,25.01,-1.13,-1.75,0,*47
1498399552.35,26770,24.0,74140.5,24.99,-1.35,-1.91,0,*41
1498399553.56,26771,24.0,74136.0,24.99,-0.69,-1.33,0,*70
1498399554.78,26772,24.0,74138.3,24.99,-0.33,-0.97,0,*43
1498399555.96,26773,24.0,74136.3,25.01,-0.45,-1.17,0,*7A
1498399557.17,26774,24.0,74140.0,25.01,-0.45,-1.13,0,*79
1498399558.37,26775,24.0,74140.8,25.01,0.33,-0.37,0,*63
1498399559.57,26776,24.0,74142.0,25.05,0.21,-0.53,0,*65
1498399560.8,26777,24.0,74140.5,25.05,-0.23,-1.01,0,*7D
1498399561.98,26778,24.0,74142.8,25.05,-0.33,-1.29,0,*79
1498399563.24,26779,24.0,74142.8,25.07,-0.23,-1.05,0,*75
1498399564.42,26780,24.0,74138.5,25.09,-0.29,-1.29,0,*79
1498399565.67,26781,24.0,74142.0,25.11,-1.39,-2.35,0,*4F
1498399566.92,26782,24.0,74140.8,25.11,-1.47,-2.35,0,*45
1498399568.15,26783,24.0,74140.0,25.09,-2.55,-3.55,0,*4A
1498399569.37,26784,24.0,74142.5,25.09,-1.39,-2.27,0,*40
1498399570.59,26785,24.0,74140.3,25.11,-0.77,-1.75,0,*77
1498399571.83,26786,24.0,74140.0,25.11,-1.87,-2.87,0,*44
1498399573.09,26787,24.0,74142.0,25.11,-2.59,-3.67,0,*4A
1498399574.34,26788,24.0,74138.5,25.11,-2.59,-3.63,0,*41
1498399575.59,26789,24.0,74140.8,25.07,-3.59,-4.65,0,*47
1498399576.8,26790,24.0,74140.3,25.07,-3.19,-4.25,0,*4F
1498399578.04,26791,24.0,74142.8,25.07,-2.67,-3.87,0,*49
1498399579.29,26792,24.0,74140.3,25.07,-2.55,-3.63,0,*41
1498399580.53,26793,24.0,74140.0,25.07,-2.71,-3.95,0,*4F
1498399581.77,26794,24.0,74140.3,25.07,-2.11,-2.99,0,*43
1498399583.02,26795,24.0,74140.0,25.07,-1.05,-2.19,0,*4C
1498399584.24,26796,24.0,74140.0,25.09,-1.55,-2.67,0,*4D
1498399585.46,26797,24.0,74142.0,25.09,-3.47,-4.61,0,*4D
1498399586.64,26798,24.0,74142.5,25.09,-1.67,-2.79,0,*4D
1498399587.85,26799,24.0,74144.3,25.09,-2.31,-3.55,0,*43
1498399589.06,26800,24.0,74140.8,25.09,-2.15,-3.43,0,*4D
1498399590.25,26801,24.0,74142.5,25.09,-2.15,-3.39,0,*41
1498399591.46,26802,24.0,74140.3,25.11,-2.79,-4.17,0,*4A
1498399592.7,26803,24.0,74138.0,25.11,-2.27,-3.67,0,*40
1498399593.94,26804,24.0,74144.0,25.13,-3.43,-4.89,0,*41
1498399595.19,26805,24.0,74140.8,25.11,-4.05,-5.61,0,*40
1498399596.44,26806,24.0,74144.3,25.09,-3.59,-5.11,0,*43
1498399597.63,26807,24.0,74142.0,25.09,-3.07,-4.57,0,*4A
1498399598.87,26808,24.0,74144.5,25.07,-2.55,-4.09,0,*46
1498399600.07,26809,24.0,74142.3,25.09,-3.91,-5.51,0,*4C
1498399601.29,26810,24.0,74142.8,25.07,-3.07,-4.65,0,*43
1498399602.53,26811,24.0,74140.8,25.07,-3.11,-4.73,0,*42
1498399603.72,26812,24.0,74140.3,25.09,-2.31,-3.79,0,*41
1498399604.96,26813,24.0,74142.3,25.09,-2.07,-3.67,0,*4A
1498399606.2,26814,24.0,74140.3,25.11,-2.91,-4.69,0,*42
1498399607.42,26815,24.0,74144.5,25.11,-4.29,-6.09,0,*42
1498399608.69,26816,24.0,74142.0,25.11,-3.43,-5.07,0,*47
1498399609.94,26817,24.0,74140.3,25.11,-2.99,-4.89,0,*47
1498399611.18,26818,24.0,74142.8,25.11,-2.87,-4.77,0,*46
1498399612.37,26819,24.0,74142.0,25.13,-2.39,-4.33,0,*40
1498399613.58,26820,24.0,74142.8,25.13,-1.71,-3.51,0,*46
1498399614.79,26821,24.0,74142.3,25.13,-1.59,-3.43,0,*4E
1498399616.03,26822,24.0,74142.8,25.19,-2.07,-4.17,0,*49
1498399617.3,26823,24.0,74144.5,25.19,-2.55,-4.69,0,*46
1498399618.52,26824,24.0,74140.5,25.21,-2.47,-4.57,0,*44
1498399619.77,26825,24.0,74142.5,25.23,-3.03,-5.23,0,*44
1498399621.01,26826,24.0,74140.3,25.21,-2.63,-4.93,0,*48
1498399622.22,26827,24.0,74142.8,25.21,-2.35,-4.69,0,*4F
1498399623.49,26828,24.0,74140.3,25.23,-2.67,-5.23,0,*4A
1498399624.76,26829,24.0,74144.5,25.23,-2.75,-5.31,0,*4B
1498399626.04,26830,24.0,74142.0,25.23,-2.63,-5.23,0,*47
1498399627.31,26831,24.0,74146.8,25.23,-2.67,-5.31,0,*41
1498399628.55,26832,24.0,74142.3,25.23,-2.75,-5.43,0,*44
1498399629.77,26833,24.0,74142.8,25.25,-2.87,-5.69,0,*46
1498399631.02,26834,24.0,74140.5,25.27,-2.43,-5.23,0,*45
1498399632.29,26835,24.0,74140.8,25.27,-1.91,-4.73,0,*4C
1498399633.57,26836,24.0,74142.3,25.27,-2.07,-5.11,0,*46
1498399634.81,26837,24.0,74140.8,25.31,-2.11,-4.99,0,*46
1498399636.06,26838,24.0,74142.8,25.33,-1.83,-4.81,0,*4A
1498399637.27,26839,24.0,74140.3,25.35,-1.59,-4.61,0,*44
1498399638.49,26840,24.0,74140.3,25.37,-1.71,-4.89,0,*44
1498399639.7,26841,24.0,74142.8,25.41,-2.27,-5.47,0,*47
1498399640.98,26842,24.0,74140.5,25.41,-1.87,-5.11,0,*4E
1498399642.2,26843,24.0,74138.0,25.45,-2.15,-5.55,0,*43
1498399643.42,26844,24.0,74140.0,25.43,-3.47,-6.85,0,*4A
1498399644.67,26845,24.0,74138.8,25.45,-4.49,-8.07,0,*40
1498399645.9,26846,24.0,74140.8,25.45,-4.77,-8.45,0,*48
1498399647.12,26847,24.0,74140.5,25.43,-5.07,-8.71,0,*4E
1498399648.34,26848,24.0,74142.8,25.43,-4.37,-7.77,0,*4A
1498399649.56,26849,24.0,74140.0,25.41,-3.03,-6.51,0,*4C
1498399650.78,26850,24.0,74142.3,25.43,-2.51,-5.97,0,*49
1498399652.0,26851,24.0,74140.8,25.45,-2.91,-6.47,0,*4C
1498399653.21,26852,24.0,74138.5,25.45,-4.61,-8.33,0,*4B
1498399654.42,26853,24.0,74140.5,25.47,-4.89,-8.71,0,*48
1498399655.63,26854,24.0,74142.3,25.47,-4.73,-8.55,0,*4C
1498399656.85,26855,24.0,74140.3,25.47,-4.09,-7.73,0,*4B
1498399658.07,26856,24.0,74142.0,25.49,-2.87,-6.43,0,*44
1498399659.34,26857,24.0,74140.3,25.49,-3.63,-7.35,0,*4E
1498399660.55,26858,24.0,74142.0,25.51,-4.77,-8.59,0,*4F
1498399661.76,26859,24.0,74142.3,25.51,-5.19,-8.75,0,*49
1498399662.98,26860,24.0,74142.5,25.51,-3.59,-7.19,0,*44
1498399664.25,26861,24.0,74140.5,25.53,-3.59,-7.27,0,*4A
1498399665.47,26862,24.0,74140.5,25.55,-3.67,-7.23,0,*46
1498399666.72,26863,24.0,74142.3,25.57,-3.55,-7.11,0,*45
1498399667.91,26864,24.0,74142.3,25.59,-3.27,-6.73,0,*4C
1498399669.13,26865,24.0,74140.8,25.61,-3.91,-7.53,0,*48
1498399670.34,26866,24.0,74140.5,25.61,-3.87,-7.53,0,*4C
1498399671.58,26867,24.0,74142.0,25.61,-4.25,-7.77,0,*44
1498399672.78,26868,24.0,74140.3,25.67,-4.29,-7.87,0,*4E
1498399673.98,26869,24.0,74136.5,25.67,-4.45,-7.99,0,*4A
1498399675.17,26870,24.0,74138.8,25.71,-4.57,-8.25,0,*4E
1498399676.38,26871,24.06,74144.0,25.69,-5.35,-9.05,0,*40
1498399677.59,26872,24.0,74136.3,25.71,-4.45,-7.95,0,*4B
1498399678.81,26873,24.0,74138.8,25.73,-4.61,-8.07,0,*4A
1498399680.02,26874,24.0,74142.8,25.75,-4.61,-8.25,0,*4B
1498399681.28,26875,24.0,74140.3,25.75,-4.21,-7.61,0,*41
1498399682.53,26876,24.0,74140.3,25.77,-4.01,-7.31,0,*47
1498399683.77,26877,24.06,74142.8,25.79,-4.29,-7.57,0,*42
1498399684.98,26878,24.0,74142.0,25.81,-4.73,-8.17,0,*4E
1498399686.24,26879,24.0,74140.3,25.83,-4.69,-8.11,0,*40
1498399687.47,26880,24.06,74144.0,25.87,-5.19,-8.55,0,*44
1498399688.68,26881,24.0,74136.8,25.89,-4.81,-8.21,0,*48
1498399689.89,26882,24.0,74142.0,25.89,-4.89,-8.21,0,*43
1498399691.11,26883,24.0,74142.3,25.93,-4.61,-7.91,0,*4B
1498399692.32,26884,24.0,74142.8,25.93,-4.61,-7.73,0,*40
1498399693.54,26885,24.06,74142.3,25.95,-4.57,-7.83,0,*4D
1498399694.74,26886,24.0,74140.5,25.97,-5.07,-8.33,0,*4C
1498399695.96,26887,24.06,74142.0,26.01,-5.23,-8.41,0,*42
1498399697.17,26888,24.06,74142.0,26.01,-6.19,-9.27,0,*46
1498399698.38,26889,24.0,74142.8,26.01,-5.93,-9.01,0,*42
1498399699.6,26890,24.0,74140.3,26.01,-6.35,-9.49,0,*49
1498399700.81,26891,24.06,74140.3,26.03,-6.01,-8.97,0,*4F
1498399702.02,26892,24.06,74142.3,26.05,-6.01,-8.97,0,*4A
1498399703.23,26893,24.06,74142.3,26.05,-6.13,-9.05,0,*42
1498399704.5,26894,24.0,74142.0,26.09,-5.85,-8.81,0,*48
1498399705.7,26895,24.06,74142.3,26.11,-6.69,-9.61,0,*4E
1498399706.92,26896,24.06,74140.0,26.11,-7.05,-10.05,0,*7C
1498399708.14,26897,24.0,74140.3,26.11,-6.93,-9.67,0,*4F
1498399709.35,26898,24.0,74140.5,26.11,-7.27,-9.97,0,*41
1498399710.56,26899,24.0,74140.3,26.15,-6.77,-9.45,0,*4F
1498399711.74,26900,24.0,74142.3,26.15,-6.13,-8.67,0,*4D
1498399712.94,26901,24.0,74140.8,26.17,-5.97,-8.33,0,*40
1498399714.18,26902,24.06,74140.3,26.17,-5.61,-7.87,0,*4A
1498399715.43,26903,24.0,74142.8,26.21,-5.73,-7.91,0,*4A
1498399716.61,26904,24.0,74142.3,26.23,-6.31,-8.55,0,*4D
1498399717.82,26905,24.0,74140.5,26.27,-6.05,-8.03,0,*4C
1498399719.0,26906,24.0,74142.3,26.27,-6.09,-8.21,0,*43
1498399720.21,26907,24.06,74140.8,26.27,-6.23,-8.29,0,*42